SWARM A

Last updated on Thu Oct 30 2025 00:03:36 GMT+0000 (Coordinated Universal Time)

1 39452U 13067B 25302.53941720 .00011923 00000+0 25066-3 0 9990 2 39452 87.3373 141.5259 0002763 85.2076 274.9497 15.45176377670561
UTC large
Height (km)
Speed (km/s)
/
Latitude / Longitude
Inclination (degrees)
Orbital Period (minutes)
Azimuth
Elevation
Range (km)
Doppler Factor

Next 0 passes for location: London (51.5072 / 0.1276)

Sorry there are no passes over London.